INTELSAT 902 (IS-902)

Last updated on Sat Sep 13 2025 00:02:45 GMT+0000 (Coordinated Universal Time)

1 26900U 01039A 25254.43524777 -.00000285 00000+0 00000+0 0 9991 2 26900 5.4082 75.1842 0004238 93.6962 288.4277 1.00272233 87909
UTC large
Height (km)
Speed (km/s)
/
Latitude / Longitude
Inclination (degrees)
Orbital Period (minutes)
Azimuth
Elevation
Range (km)
Doppler Factor

Next 0 passes for location: London (51.5072 / 0.1276)

Sorry there are no passes over London.